Location: Jetmore Oil Field
(38.1181°N, 99.9337°W)
Time: 02:41:38
(UTC+00:00)

Cosmos 2297 - Pass Details

Date: 17 February 2020
Orbit: 837 x 857 km, 71.0° (Epoch: 04 April)

Event Time Altitude Azimuth Distance (km) Brightness Sun altitude
Exits shadow 11:24:59 55° 314° (NW) 999 3.8 -24.8°
Maximum altitude 11:26:09 73° 250° (WSW) 877 3.5 -24.6°
Drops below altitude 10° 11:31:44 10° 167° (SSE) 2,450 6.2 -23.5°
Sets 11:34:11 0° 165° (SSE) 3,383 7.0 -23.0°
